QPF
0.00 0.00 0.00 0.00 0.00 0.00 0.00 0.00 0.00 0.00 0.00 0.00 0.02 0.02 0.02 0.01 0.00 0.00 0.00 0.00 0.00 0.00 0.00 0.00 0.00 0.00 0.00 0.00 0.00 0.01 0.01 0.01 0.00 0.00 0.00 0.00 0.00 0.00 0.02 0.00 0.00 0.00 0.00
0.00 0.00 0.00 0.00 0.00 0.00 0.01 0.01 0.02 0.02 0.02 0.03 0.01 0.00 0.00 0.00 0.00 0.00 0.00 0.00 0.00 0.00 0.00 0.00 0.00 0.00 0.00 0.00 0.00 0.00 0.00 0.00 0.00 0.00 0.00 0.00 0.00 0.01 0.01 0.00 0.00 0.00 0.00
0.00 0.00 0.00 0.00 0.00 0.00 0.01 0.00 0.00 0.00 0.00 0.00 0.00 0.00 0.00 0.00 0.00 0.00 0.00 0.00 0.00 0.00 0.00 0.00 0.00 0.00 0.00 0.00 0.00 0.00 0.00 0.00 0.00 0.00 0.00 0.00 0.01 0.01 0.01 0.00 0.00 0.00 0.00
0.00 0.00 0.00 0.00 0.00 0.00 0.00 0.00 0.00 0.00 0.00 0.00 0.00 0.00 0.00 0.00 0.00 0.00 0.00 0.00 0.00 0.00 0.00 0.00 0.00 0.00 0.00 0.00 0.00 0.00 0.00 0.00 0.00 0.00 0.00 0.00 0.00 0.00 0.00 0.00 0.01 0.00 0.00
0.00 0.00 0.00 0.00 0.00 0.00 0.00 0.00 0.00 0.00 0.00 0.00 0.00 0.00 0.00 0.00 0.00 0.00 0.00 0.00 0.00 0.00 0.00 0.00 0.00 0.00 0.00 0.00 0.00 0.00 0.00 0.00 0.00 0.00 0.00 0.00 0.00 0.00 0.00 0.00 0.00 0.00 0.01
0.00 0.00 0.00 0.00 0.01 0.01 0.00 0.00 0.00 0.00 0.00 0.00 0.00 0.00 0.00 0.00 0.00 0.00 0.00 0.00 0.00 0.00 0.00 0.00 0.00 0.00 0.00 0.00 0.00 0.00 0.00 0.00 0.00 0.00 0.00 0.00 0.00 0.00 0.00 0.00 0.00 0.00 0.00
0.00 0.00 0.00 0.01 0.01 0.00 0.00 0.00 0.00 0.00 0.00 0.00 0.00 0.00 0.00 0.00 0.00 0.00 0.00 0.00 0.00 0.00 0.00 0.00 0.00 0.00 0.00 0.00 0.00 0.00 0.00 0.00 0.00 0.00 0.00 0.00 0.01 0.00 0.01 0.01 0.01 0.01 0.00
0.00 0.00 0.00 0.01 0.00 0.00 0.00 0.00 0.00 0.00 0.00 0.00 0.00 0.00 0.00 0.00 0.00 0.00 0.00 0.00 0.00 0.00 0.00 0.00 0.00 0.00 0.00 0.00 0.00 0.00 0.00 0.00 0.00 0.00 0.00 0.01 0.02 0.01 0.01 0.00 0.01 0.01 0.01
0.00 0.00 0.01 0.01 0.00 0.00 0.00 0.00 0.00 0.00 0.00 0.00 0.00 0.00 0.00 0.00 0.00 0.00 0.00 0.00 0.00 0.00 0.00 0.00 0.00 0.00 0.00 0.00 0.00 0.00 0.00 0.00 0.00 0.00 0.00 0.00 0.00 0.01 0.01 0.01 0.01 0.01 0.00
0.01 0.00 0.01 0.00 0.00 0.00 0.00 0.00 0.00 0.00 0.00 0.00 0.00 0.00 0.00 0.00 0.00 0.00 0.00 0.00 0.00 0.00 0.00 0.00 0.00 0.00 0.00 0.00 0.00 0.00 0.00 0.00 0.00 0.00 0.00 0.00 0.00 0.01 0.00 0.00 0.01 0.00 0.00
0.02 0.01 0.00 0.00 0.00 0.00 0.00 0.00 0.00 0.00 0.00 0.00 0.00 0.00 0.00 0.00 0.00 0.00 0.00 0.00 0.00 0.00 0.00 0.00 0.00 0.00 0.00 0.00 0.00 0.00 0.00 0.00 0.00 0.00 0.00 0.01 0.00 0.00 0.00 0.00 0.00 0.00 0.00
0.04 0.01 0.00 0.00 0.00 0.00 0.00 0.00 0.00 0.00 0.00 0.00 0.00 0.00 0.00 0.00 0.00 0.00 0.00 0.00 0.00 0.00 0.00 0.00 0.00 0.00 0.00 0.00 0.00 0.00 0.00 0.00 0.00 0.00 0.00 0.00 0.02 0.01 0.01 0.01 0.01 0.01 0.01
0.08 0.01 0.00 0.00 0.00 0.00 0.00 0.00 0.00 0.00 0.00 0.00 0.00 0.00 0.00 0.00 0.00 0.00 0.00 0.00 0.00 0.00 0.00 0.00 0.00 0.00 0.00 0.00 0.00 0.00 0.00 0.00 0.00 0.00 0.00 0.00 0.00 0.01 0.00 0.00 0.00 0.00 0.00
0.07 0.02 0.00 0.00 0.00 0.00 0.00 0.00 0.00 0.00 0.00 0.00 0.00 0.00 0.00 0.00 0.00 0.00 0.00 0.00 0.00 0.00 0.00 0.00 0.00 0.00 0.00 0.00 0.00 0.00 0.00 0.00 0.00 0.00 0.00 0.00 0.00 0.00 0.00 0.00 0.00 0.00 0.00
0.04 0.02 0.00 0.00 0.00 0.00 0.00 0.00 0.00 0.00 0.00 0.00 0.00 0.00 0.00 0.00 0.00 0.00 0.00 0.00 0.00 0.00 0.00 0.00 0.00 0.00 0.00 0.00 0.00 0.00 0.00 0.00 0.00 0.00 0.00 0.00 0.00 0.00 0.00 0.00 0.00 0.00 0.00
0.11 0.04 0.00 0.00 0.00 0.00 0.00 0.00 0.00 0.00 0.00 0.00 0.00 0.00 0.00 0.00 0.00 0.00 0.00 0.00 0.00 0.00 0.00 0.00 0.00 0.00 0.00 0.00 0.00 0.00 0.00 0.00 0.00 0.00 0.00 0.00 0.00 0.00 0.00 0.00 0.00 0.00 0.00
0.17 0.11 0.03 0.00 0.00 0.00 0.00 0.00 0.00 0.00 0.00 0.00 0.00 0.00 0.00 0.00 0.00 0.00 0.00 0.00 0.00 0.00 0.00 0.00 0.00 0.00 0.00 0.00 0.00 0.00 0.00 0.00 0.00 0.00 0.00 0.00 0.00 0.00 0.00 0.00 0.00 0.00 0.00
0.19 0.10 0.05 0.03 0.00 0.00 0.00 0.00 0.00 0.00 0.00 0.00 0.00 0.00 0.00 0.00 0.00 0.00 0.00 0.00 0.00 0.00 0.00 0.00 0.00 0.00 0.00 0.00 0.00 0.00 0.00 0.00 0.00 0.00 0.00 0.00 0.00 0.00 0.00 0.00 0.00 0.00 0.00
0.13 0.11 0.04 0.03 0.02 0.00 0.00 0.00 0.00 0.00 0.00 0.00 0.00 0.00 0.00 0.00 0.00 0.00 0.00 0.00 0.00 0.00 0.00 0.00 0.00 0.00 0.00 0.00 0.00 0.00 0.00 0.00 0.00 0.00 0.00 0.00 0.00 0.00 0.00 0.00 0.00 0.00 0.00
0.16 0.13 0.06 0.01 0.01 0.01 0.00 0.00 0.00 0.00 0.00 0.00 0.00 0.00 0.00 0.00 0.00 0.00 0.00 0.00 0.00 0.00 0.00 0.00 0.00 0.00 0.00 0.00 0.00 0.00 0.00 0.00 0.00 0.00 0.00 0.00 0.00 0.00 0.00 0.00 0.00 0.00 0.00
0.11 0.13 0.06 0.02 0.00 0.00 0.00 0.00 0.00 0.00 0.00 0.00 0.00 0.00 0.00 0.00 0.00 0.00 0.00 0.00 0.00 0.00 0.00 0.00 0.00 0.00 0.00 0.00 0.00 0.00 0.00 0.00 0.00 0.00 0.00 0.00 0.00 0.00 0.00 0.00 0.00 0.00 0.00
0.09 0.11 0.13 0.06 0.01 0.00 0.00 0.00 0.00 0.00 0.00 0.00 0.00 0.00 0.00 0.00 0.00 0.00 0.00 0.00 0.00 0.00 0.00 0.00 0.00 0.00 0.00 0.00 0.00 0.00 0.00 0.00 0.00 0.00 0.00 0.00 0.00 0.00 0.00 0.00 0.00 0.00 0.00
0.02 0.08 0.12 0.11 0.04 0.00 0.00 0.00 0.00 0.00 0.00 0.00 0.00 0.00 0.00 0.00 0.00 0.00 0.00 0.00 0.00 0.00 0.00 0.00 0.00 0.00 0.00 0.00 0.00 0.00 0.00 0.00 0.00 0.00 0.00 0.00 0.00 0.00 0.00 0.00 0.00 0.00 0.00
0.02 0.02 0.10 0.15 0.08 0.01 0.00 0.00 0.00 0.00 0.00 0.00 0.00 0.00 0.00 0.00 0.00 0.00 0.00 0.00 0.00 0.00 0.00 0.00 0.00 0.00 0.00 0.00 0.00 0.00 0.00 0.00 0.00 0.00 0.00 0.00 0.00 0.00 0.00 0.00 0.00 0.00 0.00
0.07 0.04 0.05 0.09 0.07 0.02 0.02 0.02 0.00 0.00 0.00 0.00 0.00 0.00 0.00 0.00 0.00 0.00 0.00 0.00 0.00 0.00 0.00 0.00 0.00 0.00 0.00 0.00 0.00 0.00 0.00 0.00 0.00 0.00 0.00 0.00 0.00 0.00 0.00 0.00 0.00 0.00 0.00
0.04 0.04 0.03 0.03 0.02 0.02 0.02 0.01 0.01 0.00 0.00 0.00 0.00 0.00 0.00 0.00 0.00 0.00 0.00 0.00 0.00 0.00 0.00 0.00 0.00 0.00 0.00 0.00 0.00 0.00 0.00 0.00 0.00 0.00 0.00 0.00 0.00 0.00 0.00 0.00 0.00 0.00 0.00
MSLP
1011.21 1011.83 1012.62 1013.26 1013.74 1014.09 1014.47 1014.76 1015.00 1015.28 1015.51 1015.65 1015.76 1015.89 1016.19 1016.36 1016.49 1016.65 1016.78 1016.90 1016.91 1016.95 1017.01 1017.04 1017.09 1017.12 1017.10 1017.04 1017.05 1017.09 1017.18 1017.14 1017.17 1017.21 1017.20 1017.23 1017.16 1017.09 1017.11 1017.23 1017.18 1017.16 1017.27
1010.86 1011.68 1012.56 1013.13 1013.66 1014.05 1014.39 1014.79 1015.11 1015.35 1015.62 1015.80 1016.00 1016.22 1016.55 1016.77 1016.92 1017.02 1017.09 1017.17 1017.21 1017.26 1017.29 1017.30 1017.34 1017.35 1017.36 1017.43 1017.44 1017.43 1017.42 1017.48 1017.41 1017.28 1017.28 1017.32 1017.26 1017.11 1017.23 1017.37 1017.43 1017.39 1017.38
1010.86 1011.74 1012.58 1013.21 1013.67 1014.11 1014.54 1014.97 1015.34 1015.65 1015.93 1016.20 1016.34 1016.66 1016.83 1017.00 1017.12 1017.23 1017.33 1017.42 1017.50 1017.55 1017.55 1017.53 1017.53 1017.59 1017.61 1017.61 1017.69 1017.68 1017.70 1017.70 1017.58 1017.35 1017.25 1017.24 1017.28 1017.13 1017.30 1017.46 1017.54 1017.52 1017.49
1010.89 1011.88 1012.61 1013.30 1013.80 1014.25 1014.69 1015.11 1015.52 1015.88 1016.29 1016.54 1016.74 1016.90 1017.04 1017.21 1017.30 1017.48 1017.57 1017.70 1017.75 1017.82 1017.84 1017.87 1017.81 1017.80 1017.86 1017.83 1017.86 1017.83 1017.77 1017.77 1017.70 1017.52 1017.34 1017.08 1017.28 1017.37 1017.42 1017.49 1017.47 1017.50 1017.55
1011.12 1011.91 1012.78 1013.34 1013.90 1014.41 1014.90 1015.36 1015.76 1016.17 1016.51 1016.76 1017.00 1017.16 1017.28 1017.43 1017.60 1017.76 1017.84 1017.91 1018.05 1018.14 1018.16 1018.14 1018.14 1018.09 1018.09 1018.04 1018.01 1017.95 1017.91 1017.86 1017.83 1017.71 1017.53 1017.45 1017.67 1017.57 1017.56 1017.60 1017.54 1017.62 1017.69
1011.19 1012.15 1013.06 1013.51 1014.04 1014.58 1015.11 1015.50 1015.99 1016.35 1016.68 1016.93 1017.17 1017.39 1017.57 1017.68 1017.83 1018.03 1018.11 1018.22 1018.31 1018.40 1018.38 1018.45 1018.47 1018.41 1018.39 1018.32 1018.23 1018.11 1018.04 1017.94 1017.70 1017.74 1017.73 1017.94 1017.93 1017.87 1017.86 1017.87 1017.85 1017.87 1017.86
1011.48 1012.45 1013.16 1013.70 1014.30 1014.79 1015.28 1015.83 1016.23 1016.52 1016.83 1017.12 1017.40 1017.64 1017.84 1018.03 1018.14 1018.33 1018.40 1018.49 1018.60 1018.63 1018.66 1018.69 1018.77 1018.69 1018.62 1018.59 1018.48 1018.31 1018.08 1017.78 1017.76 1017.96 1018.27 1018.43 1018.29 1018.17 1018.17 1018.17 1018.21 1018.20 1018.18
1011.70 1012.65 1013.41 1014.04 1014.54 1015.04 1015.42 1016.08 1016.42 1016.70 1016.99 1017.30 1017.59 1017.90 1018.11 1018.25 1018.42 1018.59 1018.75 1018.80 1018.86 1018.92 1019.00 1019.03 1019.03 1019.02 1018.96 1018.88 1018.72 1018.61 1018.43 1018.43 1018.09 1018.45 1018.91 1019.01 1018.73 1018.58 1018.49 1018.53 1018.56 1018.55 1018.60
1011.79 1012.73 1013.74 1014.38 1014.91 1015.26 1015.83 1016.27 1016.59 1016.84 1017.22 1017.60 1017.80 1018.16 1018.47 1018.56 1018.75 1018.84 1019.09 1019.16 1019.22 1019.26 1019.35 1019.39 1019.39 1019.35 1019.34 1019.17 1018.92 1018.75 1018.49 1018.43 1018.71 1019.02 1019.13 1019.41 1019.14 1019.00 1019.05 1018.95 1018.93 1018.89 1018.99
1012.33 1013.01 1013.82 1014.58 1015.04 1015.62 1016.25 1016.59 1016.89 1017.15 1017.51 1017.92 1018.22 1018.47 1018.75 1018.84 1019.10 1019.18 1019.48 1019.51 1019.53 1019.58 1019.67 1019.70 1019.65 1019.62 1019.54 1019.43 1019.20 1019.16 1019.03 1019.11 1019.38 1019.69 1019.92 1019.86 1019.55 1019.52 1019.49 1019.43 1019.38 1019.31 1019.36
1012.83 1013.24 1013.77 1014.33 1014.99 1015.73 1016.47 1017.03 1017.29 1017.62 1017.79 1018.27 1018.49 1018.54 1018.79 1018.91 1019.30 1019.58 1019.81 1019.85 1019.80 1019.84 1019.84 1019.87 1019.84 1019.76 1019.67 1019.52 1019.43 1019.36 1019.32 1019.53 1019.96 1020.46 1020.59 1020.01 1019.78 1019.86 1019.91 1019.93 1019.86 1019.86 1019.91
1013.00 1013.39 1013.78 1014.10 1014.90 1015.70 1016.49 1017.11 1017.58 1017.91 1017.95 1018.20 1018.50 1018.62 1018.91 1019.00 1019.33 1019.59 1019.97 1019.95 1019.91 1019.99 1019.96 1019.88 1019.89 1019.91 1019.88 1019.93 1019.74 1019.69 1019.71 1019.95 1020.45 1020.99 1021.08 1020.49 1020.17 1020.26 1020.42 1020.44 1020.48 1020.38 1020.36
1013.09 1013.34 1013.86 1014.15 1014.83 1015.68 1016.48 1016.94 1017.50 1017.78 1017.86 1017.86 1018.25 1018.43 1018.77 1019.26 1019.53 1019.63 1020.08 1020.01 1020.07 1020.03 1020.25 1020.09 1020.03 1019.80 1019.77 1019.78 1019.93 1020.07 1020.12 1020.33 1020.79 1021.38 1021.44 1020.97 1020.74 1020.73 1020.80 1020.89 1020.86 1020.77 1020.59
1013.24 1013.71 1013.96 1014.49 1015.18 1015.79 1016.31 1016.83 1017.17 1017.47 1017.74 1017.88 1018.23 1018.37 1018.77 1019.26 1019.32 1019.51 1019.82 1019.74 1019.86 1020.01 1020.05 1020.09 1020.12 1020.08 1020.04 1020.04 1020.15 1020.38 1020.53 1020.73 1021.14 1021.57 1021.81 1021.66 1021.43 1021.31 1021.28 1021.24 1021.29 1021.23 1021.02
1013.84 1013.85 1014.43 1015.03 1015.77 1016.17 1016.56 1016.80 1017.14 1017.52 1017.75 1018.07 1018.32 1018.42 1018.62 1019.05 1019.52 1019.39 1019.66 1019.83 1019.98 1020.03 1020.22 1020.29 1020.31 1020.32 1020.41 1020.38 1020.42 1020.61 1020.88 1021.03 1021.27 1021.73 1022.07 1021.98 1021.91 1021.86 1021.72 1021.66 1021.59 1021.47 1021.34
1014.31 1014.00 1014.59 1015.10 1015.73 1016.39 1016.95 1017.12 1017.47 1017.71 1017.97 1018.32 1018.55 1018.62 1018.64 1019.09 1019.65 1019.47 1019.68 1019.97 1020.13 1020.23 1020.31 1020.47 1020.51 1020.54 1020.56 1020.64 1020.78 1020.81 1021.06 1021.22 1021.40 1021.82 1022.09 1022.24 1022.27 1022.25 1022.11 1021.97 1021.92 1021.82 1021.66
1014.41 1014.53 1014.80 1015.06 1015.53 1016.34 1016.92 1017.19 1017.65 1017.86 1018.23 1018.58 1018.85 1018.81 1018.91 1019.22 1019.72 1019.70 1019.84 1020.18 1020.28 1020.32 1020.43 1020.57 1020.60 1020.63 1020.74 1020.70 1021.07 1021.04 1021.26 1021.46 1021.60 1021.76 1022.08 1022.35 1022.44 1022.47 1022.45 1022.36 1022.34 1022.26 1022.10
1014.71 1015.12 1015.36 1014.84 1015.47 1016.35 1016.98 1017.30 1017.42 1018.06 1018.37 1018.74 1018.94 1019.09 1019.17 1019.42 1019.77 1019.96 1020.15 1020.39 1020.37 1020.49 1020.62 1020.72 1020.92 1021.03 1021.09 1021.10 1021.24 1021.24 1021.37 1021.47 1021.67 1021.89 1021.95 1022.17 1022.46 1022.64 1022.64 1022.74 1022.72 1022.70 1022.53
1014.77 1015.20 1014.43 1015.17 1016.25 1016.31 1016.76 1017.23 1017.42 1017.80 1018.38 1018.85 1018.86 1019.16 1019.34 1019.59 1019.79 1020.16 1020.30 1020.39 1020.46 1020.64 1020.79 1020.90 1021.13 1021.22 1021.36 1021.41 1021.27 1021.32 1021.46 1021.61 1021.58 1021.63 1022.04 1022.12 1022.32 1022.64 1022.84 1022.84 1022.87 1022.86 1022.77
1014.68 1015.25 1015.34 1015.66 1016.08 1016.83 1017.01 1017.05 1017.52 1017.83 1018.30 1018.85 1018.90 1019.10 1019.38 1019.70 1019.89 1020.21 1020.42 1020.41 1020.42 1020.67 1020.91 1020.98 1021.19 1021.41 1021.48 1021.59 1021.52 1021.35 1021.39 1021.42 1021.48 1021.68 1021.83 1021.82 1022.10 1022.27 1022.52 1022.74 1022.99 1022.98 1022.84
1014.84 1015.47 1015.82 1016.15 1016.17 1016.20 1016.54 1017.04 1017.59 1018.17 1018.40 1018.75 1018.85 1018.92 1019.34 1019.63 1019.87 1020.16 1020.39 1020.53 1020.44 1020.75 1020.92 1021.12 1021.24 1021.41 1021.63 1021.53 1021.77 1021.70 1021.44 1021.34 1021.50 1021.53 1021.40 1021.60 1021.79 1021.84 1022.16 1022.42 1022.63 1022.82 1023.00
1014.86 1015.34 1015.82 1016.72 1016.34 1016.16 1016.07 1016.74 1017.36 1018.09 1018.48 1018.82 1018.86 1018.96 1019.23 1019.61 1019.90 1020.12 1020.35 1020.49 1020.48 1020.78 1020.93 1021.20 1021.36 1021.55 1021.53 1021.55 1021.93 1022.04 1022.02 1021.91 1021.55 1021.39 1021.39 1021.53 1021.60 1021.80 1021.93 1022.09 1022.33 1022.39 1022.54
1014.76 1015.53 1015.69 1016.38 1016.44 1016.21 1015.85 1016.49 1017.40 1018.01 1018.46 1018.97 1019.04 1019.22 1019.47 1019.61 1019.83 1019.96 1020.12 1020.30 1020.47 1020.66 1020.92 1021.13 1021.41 1021.53 1021.71 1021.71 1021.58 1022.08 1022.30 1022.51 1022.11 1021.65 1021.58 1021.60 1021.63 1021.78 1021.78 1021.76 1021.88 1022.02 1022.26
1014.48 1015.31 1016.10 1016.73 1017.09 1016.56 1016.11 1016.55 1017.49 1017.86 1018.52 1018.77 1018.95 1019.29 1019.51 1019.55 1019.84 1019.95 1020.01 1020.17 1020.50 1020.64 1020.92 1021.04 1021.29 1021.60 1021.79 1021.90 1021.97 1021.76 1022.09 1022.47 1022.65 1022.69 1022.04 1021.80 1021.68 1021.78 1021.72 1021.76 1021.78 1021.91 1021.96
1014.37 1014.97 1015.35 1015.78 1016.67 1016.13 1017.02 1016.97 1017.93 1018.32 1018.24 1018.35 1018.78 1019.18 1019.49 1019.74 1019.98 1020.14 1020.11 1020.23 1020.39 1020.60 1020.77 1020.94 1021.32 1021.59 1021.91 1021.98 1022.12 1022.16 1022.20 1022.29 1022.57 1023.11 1023.08 1022.42 1022.14 1021.85 1021.79 1021.74 1021.71 1021.74 1021.71
1014.03 1014.54 1015.14 1015.65 1016.48 1017.08 1016.68 1017.63 1018.05 1018.54 1018.33 1018.15 1018.86 1019.36 1019.53 1019.76 1020.19 1020.04 1020.20 1020.28 1020.43 1020.68 1020.95 1021.17 1021.36 1021.62 1021.75 1021.75 1021.96 1022.14 1022.24 1022.43 1022.67 1022.90 1023.23 1022.77 1022.42 1022.02 1021.67 1021.46 1021.52 1021.53 1021.64
Thickness
5765 5763 5757 5753 5750 5749 5746 5745 5744 5743 5742 5741 5741 5740 5738 5736 5735 5734 5733 5732 5732 5731 5731 5730 5730 5729 5730 5730 5730 5730 5729 5729 5728 5727 5726 5724 5723 5722 5720 5718 5718 5716 5713
5768 5763 5757 5753 5750 5748 5747 5744 5743 5742 5741 5740 5739 5738 5735 5733 5732 5731 5731 5730 5730 5729 5729 5729 5728 5728 5727 5727 5727 5727 5726 5726 5726 5726 5725 5723 5722 5721 5719 5716 5715 5713 5710
5766 5760 5754 5751 5749 5747 5745 5742 5740 5739 5738 5736 5736 5734 5733 5732 5731 5730 5729 5728 5728 5727 5727 5727 5727 5726 5726 5725 5724 5724 5724 5723 5724 5725 5724 5722 5720 5719 5716 5714 5711 5709 5707
5762 5756 5752 5748 5746 5744 5743 5741 5738 5737 5734 5733 5733 5732 5731 5730 5729 5728 5727 5726 5725 5725 5725 5724 5725 5725 5723 5723 5722 5722 5722 5722 5722 5722 5722 5721 5718 5716 5714 5712 5710 5708 5706
5757 5752 5748 5745 5743 5741 5739 5737 5735 5733 5732 5731 5730 5729 5729 5727 5726 5725 5725 5724 5723 5722 5722 5722 5722 5722 5721 5721 5721 5720 5720 5719 5719 5719 5718 5717 5715 5713 5712 5710 5708 5706 5703
5754 5747 5743 5741 5739 5737 5735 5734 5732 5731 5730 5728 5728 5726 5726 5725 5723 5722 5722 5721 5721 5720 5720 5719 5719 5719 5718 5718 5718 5718 5717 5717 5718 5717 5715 5712 5711 5709 5708 5706 5704 5702 5700
5747 5741 5738 5736 5734 5733 5731 5729 5728 5728 5727 5726 5724 5723 5722 5720 5720 5718 5718 5718 5717 5717 5716 5716 5715 5715 5715 5714 5714 5714 5715 5717 5715 5712 5709 5707 5706 5705 5703 5702 5700 5698 5696
5740 5736 5733 5730 5729 5728 5727 5724 5724 5724 5723 5722 5721 5719 5718 5717 5716 5715 5714 5714 5713 5713 5712 5712 5712 5711 5711 5711 5711 5711 5711 5711 5710 5707 5702 5700 5700 5699 5698 5696 5694 5693 5690
5735 5731 5727 5724 5723 5723 5721 5720 5720 5720 5719 5718 5718 5716 5714 5713 5712 5712 5710 5709 5709 5708 5707 5707 5707 5707 5706 5707 5708 5709 5710 5709 5705 5702 5698 5695 5695 5694 5691 5691 5689 5687 5684
5727 5724 5722 5720 5719 5717 5715 5715 5715 5715 5714 5713 5713 5712 5710 5709 5708 5709 5706 5705 5704 5703 5702 5702 5702 5702 5702 5702 5703 5703 5703 5702 5698 5694 5691 5689 5689 5688 5686 5685 5683 5682 5680
5717 5719 5718 5718 5716 5713 5710 5709 5710 5709 5709 5708 5708 5709 5707 5707 5706 5705 5702 5701 5701 5699 5699 5698 5698 5698 5698 5698 5698 5698 5698 5695 5691 5686 5683 5684 5684 5682 5680 5678 5677 5675 5673
5710 5713 5715 5716 5713 5710 5706 5705 5705 5704 5705 5705 5705 5706 5704 5704 5704 5702 5699 5698 5698 5696 5695 5695 5695 5694 5693 5692 5693 5692 5691 5689 5684 5679 5676 5678 5678 5676 5673 5671 5669 5667 5665
5704 5708 5709 5712 5709 5706 5702 5702 5701 5702 5702 5704 5702 5703 5701 5699 5699 5699 5696 5696 5695 5693 5692 5691 5691 5692 5691 5689 5687 5685 5684 5682 5678 5673 5670 5671 5671 5669 5666 5663 5662 5660 5659
5699 5699 5703 5703 5701 5700 5699 5699 5699 5699 5699 5700 5698 5699 5697 5696 5697 5696 5694 5694 5693 5690 5689 5687 5687 5685 5684 5683 5681 5679 5677 5675 5671 5667 5663 5662 5662 5661 5659 5657 5655 5653 5652
5688 5692 5691 5690 5689 5690 5691 5693 5694 5695 5695 5694 5694 5694 5694 5693 5690 5693 5692 5690 5688 5686 5684 5682 5681 5680 5677 5676 5675 5673 5670 5668 5665 5661 5657 5655 5653 5652 5651 5649 5647 5645 5644
5677 5684 5683 5683 5681 5680 5680 5683 5685 5687 5688 5688 5688 5689 5689 5688 5685 5689 5688 5685 5683 5680 5679 5677 5676 5674 5673 5670 5668 5666 5663 5661 5659 5655 5652 5648 5645 5643 5642 5640 5638 5636 5635
5671 5674 5675 5675 5676 5675 5676 5677 5676 5678 5679 5680 5680 5682 5683 5682 5679 5682 5681 5679 5677 5675 5673 5672 5671 5669 5667 5665 5661 5659 5656 5653 5651 5649 5645 5641 5639 5636 5633 5632 5629 5627 5626
5660 5662 5664 5668 5670 5668 5668 5670 5673 5670 5672 5673 5674 5675 5676 5675 5673 5673 5673 5671 5670 5669 5667 5666 5664 5662 5659 5657 5654 5652 5649 5646 5644 5640 5638 5636 5632 5628 5626 5622 5620 5618 5616
5652 5658 5660 5643 5648 5661 5661 5663 5666 5667 5666 5666 5670 5669 5669 5668 5667 5666 5666 5665 5664 5662 5661 5660 5657 5655 5651 5649 5648 5646 5643 5640 5637 5634 5630 5628 5625 5622 5618 5615 5613 5610 5608
5646 5649 5646 5652 5649 5647 5652 5660 5661 5662 5662 5659 5663 5663 5662 5661 5660 5659 5658 5659 5658 5656 5654 5652 5650 5647 5644 5641 5641 5639 5636 5634 5631 5628 5625 5623 5619 5615 5612 5608 5604 5602 5600
5639 5639 5640 5637 5646 5649 5651 5653 5655 5654 5654 5653 5654 5657 5656 5655 5653 5653 5652 5651 5651 5648 5646 5645 5642 5640 5636 5635 5631 5629 5629 5628 5624 5622 5621 5618 5614 5611 5606 5602 5598 5594 5590
5632 5635 5636 5629 5637 5643 5648 5650 5649 5646 5647 5646 5649 5650 5649 5646 5646 5645 5644 5643 5642 5640 5639 5636 5633 5630 5629 5627 5622 5619 5617 5615 5614 5614 5612 5610 5607 5603 5599 5594 5589 5586 5583
5628 5625 5629 5613 5631 5637 5643 5643 5641 5640 5639 5638 5639 5640 5639 5639 5638 5637 5636 5636 5634 5632 5629 5627 5623 5622 5618 5617 5615 5608 5603 5601 5600 5605 5602 5599 5597 5593 5590 5587 5583 5579 5574
5622 5621 5616 5618 5618 5626 5634 5635 5634 5633 5630 5631 5632 5631 5630 5630 5628 5628 5628 5627 5625 5623 5620 5617 5614 5611 5608 5605 5603 5603 5597 5591 5584 5583 5588 5588 5587 5583 5581 5577 5574 5569 5565
5615 5615 5614 5617 5611 5606 5615 5621 5619 5621 5625 5626 5624 5622 5621 5619 5618 5618 5619 5618 5617 5614 5611 5610 5604 5600 5597 5595 5592 5590 5586 5582 5578 5570 5566 5570 5572 5570 5568 5564 5561 5559 5555
5609 5611 5608 5610 5611 5608 5613 5601 5610 5612 5618 5619 5615 5611 5611 5610 5606 5609 5608 5608 5606 5603 5600 5597 5592 5589 5586 5586 5583 5578 5575 5572 5567 5562 5554 5555 5556 5556 5556 5553 5550 5548 5544